Year,Month,Day,Hour,Minute,Value (Times are PST for temperature in C)
2010,08,13,00,00,18.70
2010,08,13,00,01,18.70
2010,08,13,00,02,18.70
2010,08,13,00,03,18.60
2010,08,13,00,04,18.60
2010,08,13,00,05,18.60
2010,08,13,00,06,18.60
2010,08,13,00,07,18.60
2010,08,13,00,08,18.60
2010,08,13,00,09,18.60
2010,08,13,00,10,18.50
2010,08,13,00,11,18.50
2010,08,13,00,12,18.50
2010,08,13,00,13,18.50
2010,08,13,00,14,18.50
2010,08,13,00,15,18.50
2010,08,13,00,16,18.50
2010,08,13,00,17,18.50
2010,08,13,00,18,18.40
2010,08,13,00,19,18.40
2010,08,13,00,20,18.40
2010,08,13,00,21,18.40
2010,08,13,00,22,18.40
2010,08,13,00,23,18.40
2010,08,13,00,24,18.30
2010,08,13,00,25,18.30
2010,08,13,00,26,18.30
2010,08,13,00,27,18.30
2010,08,13,00,28,18.30
2010,08,13,00,29,18.30
2010,08,13,00,30,18.20
2010,08,13,00,31,18.20
2010,08,13,00,32,18.20
2010,08,13,00,33,18.20
2010,08,13,00,34,18.20
2010,08,13,00,35,18.10
2010,08,13,00,36,18.10
2010,08,13,00,37,18.10
2010,08,13,00,38,18.10
2010,08,13,00,39,18.00
2010,08,13,00,40,18.00
2010,08,13,00,41,17.90
2010,08,13,00,42,17.90
2010,08,13,00,43,17.90
2010,08,13,00,44,17.90
2010,08,13,00,45,17.90
2010,08,13,00,46,17.90
2010,08,13,00,47,17.90
2010,08,13,00,48,17.90
2010,08,13,00,49,17.90
2010,08,13,00,50,17.90
2010,08,13,00,51,17.90
2010,08,13,00,52,17.80
2010,08,13,00,53,17.80
2010,08,13,00,54,17.80
2010,08,13,00,55,17.80
2010,08,13,00,56,17.80
2010,08,13,00,57,17.80
2010,08,13,00,58,17.80
2010,08,13,00,59,17.80
2010,08,13,01,00,17.80
2010,08,13,01,01,17.80
2010,08,13,01,02,17.80
2010,08,13,01,03,17.70
2010,08,13,01,04,17.70
2010,08,13,01,05,17.70
2010,08,13,01,06,17.70
2010,08,13,01,07,17.70
2010,08,13,01,08,17.70
2010,08,13,01,09,17.70
2010,08,13,01,10,17.70
2010,08,13,01,11,17.70
2010,08,13,01,12,17.70
2010,08,13,01,13,17.70
2010,08,13,01,14,17.70
2010,08,13,01,15,17.70
2010,08,13,01,16,17.70
2010,08,13,01,17,17.70
2010,08,13,01,18,17.60
2010,08,13,01,19,17.60
2010,08,13,01,20,17.60
2010,08,13,01,21,17.60
2010,08,13,01,22,17.60
2010,08,13,01,23,17.50
2010,08,13,01,24,17.50
2010,08,13,01,25,17.50
2010,08,13,01,26,17.50
2010,08,13,01,27,17.50
2010,08,13,01,28,17.50
2010,08,13,01,29,17.40
2010,08,13,01,30,17.40
2010,08,13,01,31,17.40
2010,08,13,01,32,17.40
2010,08,13,01,33,17.40
2010,08,13,01,34,17.40
2010,08,13,01,35,17.40
2010,08,13,01,36,17.30
2010,08,13,01,37,17.30
2010,08,13,01,38,17.30
2010,08,13,01,39,17.30
2010,08,13,01,40,17.30
2010,08,13,01,41,17.30
2010,08,13,01,42,17.30
2010,08,13,01,43,17.30
2010,08,13,01,44,17.30
2010,08,13,01,45,17.30
2010,08,13,01,46,17.30
2010,08,13,01,47,17.30
2010,08,13,01,48,17.30
2010,08,13,01,49,17.30
2010,08,13,01,50,17.30
2010,08,13,01,51,17.30
2010,08,13,01,52,17.30
2010,08,13,01,53,17.30
2010,08,13,01,54,17.30
2010,08,13,01,55,17.20
2010,08,13,01,56,17.20
2010,08,13,01,57,17.20
2010,08,13,01,58,17.20
2010,08,13,01,59,17.20
2010,08,13,02,00,17.20
2010,08,13,02,01,17.20
2010,08,13,02,02,17.10
2010,08,13,02,03,17.10
2010,08,13,02,04,17.10
2010,08,13,02,05,17.20
2010,08,13,02,06,17.20
2010,08,13,02,07,17.20
2010,08,13,02,08,17.20
2010,08,13,02,09,17.20
2010,08,13,02,10,17.20
2010,08,13,02,11,17.30
2010,08,13,02,12,17.30
2010,08,13,02,13,17.30
2010,08,13,02,14,17.20
2010,08,13,02,15,17.20
2010,08,13,02,16,17.20
2010,08,13,02,17,17.20
2010,08,13,02,18,17.20
2010,08,13,02,19,17.20
2010,08,13,02,20,17.10
2010,08,13,02,21,17.10
2010,08,13,02,22,17.10
2010,08,13,02,23,17.10
2010,08,13,02,24,17.10
2010,08,13,02,25,17.10
2010,08,13,02,26,17.10
2010,08,13,02,27,17.00
2010,08,13,02,28,17.00
2010,08,13,02,29,17.00
2010,08,13,02,30,16.90
2010,08,13,02,31,16.90
2010,08,13,02,32,16.90
2010,08,13,02,33,16.90
2010,08,13,02,34,16.90
2010,08,13,02,35,16.80
2010,08,13,02,36,16.80
2010,08,13,02,37,16.80
2010,08,13,02,38,16.80
2010,08,13,02,39,16.90
2010,08,13,02,40,16.90
2010,08,13,02,41,16.90
2010,08,13,02,42,16.90
2010,08,13,02,43,16.90
2010,08,13,02,44,16.90
2010,08,13,02,45,16.90
2010,08,13,02,46,16.90
2010,08,13,02,47,16.90
2010,08,13,02,48,17.00
2010,08,13,02,49,17.10
2010,08,13,02,50,17.10
2010,08,13,02,51,17.10
2010,08,13,02,52,17.10
2010,08,13,02,53,17.10
2010,08,13,02,54,17.20
2010,08,13,02,55,17.20
2010,08,13,02,56,17.20
2010,08,13,02,57,17.20
2010,08,13,02,58,17.10
2010,08,13,02,59,17.20
2010,08,13,03,00,17.20
2010,08,13,03,01,17.20
2010,08,13,03,02,17.20
2010,08,13,03,03,17.30
2010,08,13,03,04,17.30
2010,08,13,03,05,17.30
2010,08,13,03,06,17.20
2010,08,13,03,07,17.20
2010,08,13,03,08,17.20
2010,08,13,03,09,17.20
2010,08,13,03,10,17.10
2010,08,13,03,11,17.10
2010,08,13,03,12,17.10
2010,08,13,03,13,17.10
2010,08,13,03,14,17.10
2010,08,13,03,15,17.10
2010,08,13,03,16,17.10
2010,08,13,03,17,17.10
2010,08,13,03,18,17.10
2010,08,13,03,19,17.20
2010,08,13,03,20,17.20
2010,08,13,03,21,17.20
2010,08,13,03,22,17.20
2010,08,13,03,23,17.20
2010,08,13,03,24,17.10
2010,08,13,03,25,17.10
2010,08,13,03,26,17.10
2010,08,13,03,27,17.10
2010,08,13,03,28,17.00
2010,08,13,03,29,17.00
2010,08,13,03,30,17.00
2010,08,13,03,31,17.00
2010,08,13,03,32,16.90
2010,08,13,03,33,16.90
2010,08,13,03,34,16.90
2010,08,13,03,35,16.90
2010,08,13,03,36,16.90
2010,08,13,03,37,16.90
2010,08,13,03,38,16.90
2010,08,13,03,39,16.90
2010,08,13,03,40,16.90
2010,08,13,03,41,16.90
2010,08,13,03,42,17.00
2010,08,13,03,43,16.90
2010,08,13,03,44,17.00
2010,08,13,03,45,16.90
2010,08,13,03,46,16.90
2010,08,13,03,47,16.90
2010,08,13,03,48,16.90
2010,08,13,03,49,16.90
2010,08,13,03,50,16.90
2010,08,13,03,51,16.90
2010,08,13,03,52,16.90
2010,08,13,03,53,16.90
2010,08,13,03,54,16.90
2010,08,13,03,55,16.90
2010,08,13,03,56,16.90
2010,08,13,03,57,16.90
2010,08,13,03,58,16.90
2010,08,13,03,59,16.90
2010,08,13,04,00,16.90
2010,08,13,04,01,16.90
2010,08,13,04,02,16.90
2010,08,13,04,03,16.90
2010,08,13,04,04,16.90
2010,08,13,04,05,16.90
2010,08,13,04,06,16.80
2010,08,13,04,07,16.80
2010,08,13,04,08,16.80
2010,08,13,04,09,16.80
2010,08,13,04,10,16.80
2010,08,13,04,11,16.80
2010,08,13,04,12,16.80
2010,08,13,04,13,16.80
2010,08,13,04,14,16.80
2010,08,13,04,15,16.70
2010,08,13,04,16,16.70
2010,08,13,04,17,16.70
2010,08,13,04,18,16.70
2010,08,13,04,19,16.70
2010,08,13,04,20,16.70
2010,08,13,04,21,16.70
2010,08,13,04,22,16.70
2010,08,13,04,23,16.70
2010,08,13,04,24,16.60
2010,08,13,04,25,16.60
2010,08,13,04,26,16.60
2010,08,13,04,27,16.60
2010,08,13,04,28,16.60
2010,08,13,04,29,16.60
2010,08,13,04,30,16.60
2010,08,13,04,31,16.60
2010,08,13,04,32,16.60
2010,08,13,04,33,16.60
2010,08,13,04,34,16.60
2010,08,13,04,35,16.60
2010,08,13,04,36,16.50
2010,08,13,04,37,16.50
2010,08,13,04,38,16.50
2010,08,13,04,39,16.50
2010,08,13,04,40,16.50
2010,08,13,04,41,16.40
2010,08,13,04,42,16.40
2010,08,13,04,43,16.40
2010,08,13,04,44,16.40
2010,08,13,04,45,16.40
2010,08,13,04,46,16.30
2010,08,13,04,47,16.30
2010,08,13,04,48,16.30
2010,08,13,04,49,16.30
2010,08,13,04,50,16.30
2010,08,13,04,51,16.30
2010,08,13,04,52,16.30
2010,08,13,04,53,16.30
2010,08,13,04,54,16.30
2010,08,13,04,55,16.20
2010,08,13,04,56,16.20
2010,08,13,04,57,16.20
2010,08,13,04,58,16.20
2010,08,13,04,59,16.20
2010,08,13,05,00,16.20
2010,08,13,05,01,16.20
2010,08,13,05,02,16.20
2010,08,13,05,03,16.20
2010,08,13,05,04,16.20
2010,08,13,05,05,16.20
2010,08,13,05,06,16.20
2010,08,13,05,07,16.20
2010,08,13,05,08,16.20
2010,08,13,05,09,16.20
2010,08,13,05,10,16.20
2010,08,13,05,11,16.20
2010,08,13,05,12,16.20
2010,08,13,05,13,16.20
2010,08,13,05,14,16.20
2010,08,13,05,15,16.20
2010,08,13,05,16,16.10
2010,08,13,05,17,16.10
2010,08,13,05,18,16.10
2010,08,13,05,19,16.10
2010,08,13,05,20,16.10
2010,08,13,05,21,16.10
2010,08,13,05,22,16.10
2010,08,13,05,23,16.10
2010,08,13,05,24,16.10
2010,08,13,05,25,16.10
2010,08,13,05,26,16.20
2010,08,13,05,27,16.10
2010,08,13,05,28,16.10
2010,08,13,05,29,16.10
2010,08,13,05,30,16.10
2010,08,13,05,31,16.10
2010,08,13,05,32,16.10
2010,08,13,05,33,16.10
2010,08,13,05,34,16.10
2010,08,13,05,35,16.10
2010,08,13,05,36,16.10
2010,08,13,05,37,16.10
2010,08,13,05,38,16.10
2010,08,13,05,39,16.10
2010,08,13,05,40,16.20
2010,08,13,05,41,16.20
2010,08,13,05,42,16.20
2010,08,13,05,43,16.20
2010,08,13,05,44,16.20
2010,08,13,05,45,16.20
2010,08,13,05,46,16.20
2010,08,13,05,47,16.20
2010,08,13,05,48,16.20
2010,08,13,05,49,16.20
2010,08,13,05,50,16.20
2010,08,13,05,51,16.20
2010,08,13,05,52,16.20
2010,08,13,05,53,16.20
2010,08,13,05,54,16.20
2010,08,13,06,44,16.60
2010,08,13,06,45,16.60
2010,08,13,06,46,16.60
2010,08,13,06,47,16.60
2010,08,13,06,48,16.60
2010,08,13,06,49,16.60
2010,08,13,06,50,16.70
2010,08,13,06,51,16.70
2010,08,13,06,52,16.70
2010,08,13,06,53,16.70
2010,08,13,06,54,16.70
2010,08,13,06,55,16.70
2010,08,13,06,56,16.70
2010,08,13,06,57,16.70
2010,08,13,06,58,16.70
2010,08,13,06,59,16.70
2010,08,13,07,00,16.70
2010,08,13,07,01,16.70
2010,08,13,07,02,16.70
2010,08,13,07,03,16.80
2010,08,13,07,04,16.80
2010,08,13,07,05,16.80
2010,08,13,07,06,16.80
2010,08,13,07,07,16.80
2010,08,13,07,08,16.80
2010,08,13,07,09,16.80
2010,08,13,07,10,16.90
2010,08,13,07,11,16.90
2010,08,13,07,12,16.90
2010,08,13,07,13,16.90
2010,08,13,07,14,17.00
2010,08,13,07,15,17.00
2010,08,13,07,16,17.10
2010,08,13,07,17,17.10
2010,08,13,07,18,17.10
2010,08,13,07,19,17.10
2010,08,13,07,20,17.10
2010,08,13,07,21,17.10
2010,08,13,07,22,17.20
2010,08,13,07,23,17.20
2010,08,13,07,24,17.20
2010,08,13,07,25,17.20
2010,08,13,07,26,17.20
2010,08,13,07,27,17.20
2010,08,13,07,28,17.20
2010,08,13,07,29,17.20
2010,08,13,07,30,17.20
2010,08,13,07,31,17.20
2010,08,13,07,32,17.30
2010,08,13,07,33,17.30
2010,08,13,07,34,17.30
2010,08,13,07,35,17.30
2010,08,13,07,36,17.40
2010,08,13,07,37,17.40
2010,08,13,07,38,17.50
2010,08,13,07,39,17.50
2010,08,13,07,40,17.60
2010,08,13,07,41,17.60
2010,08,13,07,42,17.70
2010,08,13,07,43,17.70
2010,08,13,07,44,17.80
2010,08,13,07,45,17.80
2010,08,13,07,46,17.80
2010,08,13,07,47,17.80
2010,08,13,07,48,17.90
2010,08,13,07,49,17.90
2010,08,13,07,50,17.90
2010,08,13,07,51,17.90
2010,08,13,07,52,17.90
2010,08,13,07,53,17.80
2010,08,13,07,54,17.80
2010,08,13,07,55,17.80
2010,08,13,07,56,17.80
2010,08,13,07,57,17.80
2010,08,13,07,58,17.80
2010,08,13,07,59,17.70
2010,08,13,08,00,17.70
2010,08,13,08,01,17.70
2010,08,13,08,02,17.70
2010,08,13,08,03,17.60
2010,08,13,08,04,17.60
2010,08,13,08,05,17.60
2010,08,13,08,06,17.60
2010,08,13,08,07,17.60
2010,08,13,08,08,17.60
2010,08,13,08,09,17.60
2010,08,13,08,10,17.70
2010,08,13,08,11,17.70
2010,08,13,08,12,17.70
2010,08,13,08,13,17.80
2010,08,13,08,14,17.90
2010,08,13,08,15,17.90
2010,08,13,08,16,18.00
2010,08,13,08,17,18.10
2010,08,13,08,18,18.10
2010,08,13,08,19,18.20
2010,08,13,08,20,18.20
2010,08,13,08,21,18.20
2010,08,13,08,22,18.20
2010,08,13,08,23,18.20
2010,08,13,08,24,18.30
2010,08,13,08,25,18.30
2010,08,13,08,26,18.30
2010,08,13,08,27,18.30
2010,08,13,08,28,18.30
2010,08,13,08,29,18.30
2010,08,13,08,30,18.30
2010,08,13,08,31,18.30
2010,08,13,08,32,18.30
2010,08,13,08,33,18.30
2010,08,13,08,34,18.30
2010,08,13,08,35,18.40
2010,08,13,08,36,18.40
2010,08,13,08,37,18.40
2010,08,13,08,38,18.40
2010,08,13,08,39,18.40
2010,08,13,08,40,18.40
2010,08,13,08,41,18.40
2010,08,13,08,42,18.40
2010,08,13,08,43,18.40
2010,08,13,08,44,18.40
2010,08,13,08,45,18.40
2010,08,13,08,46,18.40
2010,08,13,08,47,18.30
2010,08,13,08,48,18.30
2010,08,13,08,49,18.40
2010,08,13,08,50,18.40
2010,08,13,08,51,18.40
2010,08,13,08,52,18.40
2010,08,13,08,53,18.40
2010,08,13,08,54,18.40
2010,08,13,08,55,18.40
2010,08,13,08,56,18.40
2010,08,13,08,57,18.40
2010,08,13,08,58,18.30
2010,08,13,08,59,18.30
2010,08,13,09,00,18.40
2010,08,13,09,01,18.40
2010,08,13,09,02,18.40
2010,08,13,09,03,18.50
2010,08,13,09,04,18.60
2010,08,13,09,05,18.70
2010,08,13,09,06,18.80
2010,08,13,09,07,18.90
2010,08,13,09,08,18.90
2010,08,13,09,09,19.00
2010,08,13,09,10,19.10
2010,08,13,09,11,19.20
2010,08,13,09,12,19.20
2010,08,13,09,13,19.30
2010,08,13,09,14,19.30
2010,08,13,09,15,19.40
2010,08,13,09,16,19.40
2010,08,13,09,17,19.50
2010,08,13,09,18,19.60
2010,08,13,09,19,19.60
2010,08,13,09,20,19.70
2010,08,13,09,21,19.70
2010,08,13,09,22,19.60
2010,08,13,09,23,19.60
2010,08,13,09,24,19.50
2010,08,13,09,25,19.40
2010,08,13,09,26,19.30
2010,08,13,09,27,19.30
2010,08,13,09,28,19.20
2010,08,13,09,29,19.20
2010,08,13,09,30,19.20
2010,08,13,09,31,19.20
2010,08,13,09,32,19.20
2010,08,13,09,33,19.20
2010,08,13,09,34,19.20
2010,08,13,09,35,19.20
2010,08,13,09,36,19.30
2010,08,13,09,37,19.30
2010,08,13,09,38,19.30
2010,08,13,09,39,19.30
2010,08,13,09,40,19.30
2010,08,13,09,41,19.20
2010,08,13,09,42,19.10
2010,08,13,09,43,19.10
2010,08,13,09,44,19.10
2010,08,13,09,45,19.10
2010,08,13,09,46,19.10
2010,08,13,09,47,19.10
2010,08,13,09,48,19.00
2010,08,13,09,49,19.00
2010,08,13,09,50,19.00
2010,08,13,09,51,18.90
2010,08,13,09,52,18.80
2010,08,13,09,53,18.70
2010,08,13,09,54,18.70
2010,08,13,09,55,18.60
2010,08,13,09,56,18.60
2010,08,13,09,57,18.60
2010,08,13,09,58,18.60
2010,08,13,09,59,18.60
2010,08,13,10,00,18.50
2010,08,13,10,01,18.50
2010,08,13,10,02,18.50
2010,08,13,10,03,18.50
2010,08,13,10,04,18.50
2010,08,13,10,05,18.50
2010,08,13,10,06,18.60
2010,08,13,10,07,18.70
2010,08,13,10,08,18.70
2010,08,13,10,09,18.70
2010,08,13,10,10,18.80
2010,08,13,10,11,18.80
2010,08,13,10,12,18.80
2010,08,13,10,13,18.80
2010,08,13,10,14,18.80
2010,08,13,10,15,18.90
2010,08,13,10,16,18.90
2010,08,13,10,17,18.90
2010,08,13,10,18,18.90
2010,08,13,10,19,18.90
2010,08,13,10,20,18.80
2010,08,13,10,21,18.80
2010,08,13,10,22,18.80
2010,08,13,10,23,18.80
2010,08,13,10,24,18.80
2010,08,13,10,25,18.80
2010,08,13,10,26,18.70
2010,08,13,10,27,18.60
2010,08,13,10,28,18.60
2010,08,13,10,29,18.50
2010,08,13,10,30,18.50
2010,08,13,10,31,18.60
2010,08,13,10,32,18.60
2010,08,13,10,33,18.60
2010,08,13,10,34,18.60
2010,08,13,10,35,18.60
2010,08,13,10,36,18.60
2010,08,13,10,37,18.60
2010,08,13,10,38,18.60
2010,08,13,10,39,18.60
2010,08,13,10,40,18.60
2010,08,13,10,41,18.60
2010,08,13,10,42,18.60
2010,08,13,10,43,18.70
2010,08,13,10,44,18.70
2010,08,13,10,45,18.80
2010,08,13,10,46,18.80
2010,08,13,10,47,18.90
2010,08,13,10,48,18.80
2010,08,13,10,49,18.80
2010,08,13,10,50,18.70
2010,08,13,10,51,18.70
2010,08,13,10,52,18.70
2010,08,13,10,53,18.80
2010,08,13,10,54,18.90
2010,08,13,10,55,18.90
2010,08,13,10,56,18.80
2010,08,13,10,57,18.80
2010,08,13,10,58,18.80
2010,08,13,10,59,18.80
2010,08,13,11,00,18.80
2010,08,13,11,01,18.90
2010,08,13,11,02,18.90
2010,08,13,11,03,18.90
2010,08,13,11,04,18.90
2010,08,13,11,05,18.90
2010,08,13,11,06,18.90
2010,08,13,11,07,18.90
2010,08,13,11,08,18.90
2010,08,13,11,09,18.90
2010,08,13,11,10,19.00
2010,08,13,11,11,19.00
2010,08,13,11,12,19.10
2010,08,13,11,13,19.10
2010,08,13,11,14,19.10
2010,08,13,11,15,19.10
2010,08,13,11,16,19.10
2010,08,13,11,17,19.00
2010,08,13,11,18,19.00
2010,08,13,11,19,19.00
2010,08,13,11,20,19.10
2010,08,13,11,21,19.20
2010,08,13,11,22,19.20
2010,08,13,11,23,19.20
2010,08,13,11,24,19.20
2010,08,13,11,25,19.20
2010,08,13,11,26,19.20
2010,08,13,11,27,19.20
2010,08,13,11,28,19.20
2010,08,13,11,29,19.20
2010,08,13,11,30,19.20
2010,08,13,11,31,19.20
2010,08,13,11,32,19.20
2010,08,13,11,33,19.30
2010,08,13,11,34,19.30
2010,08,13,11,35,19.30
2010,08,13,11,36,19.30
2010,08,13,11,37,19.40
2010,08,13,11,38,19.40
2010,08,13,11,39,19.50
2010,08,13,11,40,19.50
2010,08,13,11,41,19.50
2010,08,13,11,42,19.40
2010,08,13,11,43,19.40
2010,08,13,11,44,19.30
2010,08,13,11,45,19.30
2010,08,13,11,46,19.30
2010,08,13,11,47,19.30
2010,08,13,11,48,19.30
2010,08,13,11,49,19.30
2010,08,13,11,50,19.30
2010,08,13,11,51,19.30
2010,08,13,11,52,19.30
2010,08,13,11,53,19.30
2010,08,13,11,54,19.40
2010,08,13,11,55,19.40
2010,08,13,11,56,19.50
2010,08,13,11,57,19.50
2010,08,13,11,58,19.50
2010,08,13,11,59,19.50
2010,08,13,12,00,19.40
2010,08,13,12,01,19.40
2010,08,13,12,02,19.40
2010,08,13,12,03,19.50
2010,08,13,12,04,19.60
2010,08,13,12,05,19.60
2010,08,13,12,06,19.60
2010,08,13,12,07,19.60
2010,08,13,12,08,19.60
2010,08,13,12,09,19.60
2010,08,13,12,10,19.70
2010,08,13,12,11,19.80
2010,08,13,12,12,19.80
2010,08,13,12,13,19.80
2010,08,13,12,14,19.90
2010,08,13,12,15,19.90
2010,08,13,12,16,20.00
2010,08,13,12,17,20.00
2010,08,13,12,18,20.10
2010,08,13,12,19,20.10
2010,08,13,12,20,20.10
2010,08,13,12,21,20.10
2010,08,13,12,22,20.20
2010,08,13,12,23,20.20
2010,08,13,12,24,20.10
2010,08,13,12,25,20.20
2010,08,13,12,26,20.20
2010,08,13,12,27,20.20
2010,08,13,12,28,20.20
2010,08,13,12,29,20.20
2010,08,13,12,30,20.20
2010,08,13,12,31,20.20
2010,08,13,12,32,20.20
2010,08,13,12,33,20.30
2010,08,13,12,34,20.40
2010,08,13,12,35,20.50
2010,08,13,12,36,20.50
2010,08,13,12,37,20.70
2010,08,13,12,38,20.70
2010,08,13,12,39,20.70
2010,08,13,12,40,20.80
2010,08,13,12,41,20.80
2010,08,13,12,42,21.00
2010,08,13,12,43,21.10
2010,08,13,12,44,21.20
2010,08,13,12,45,21.20
2010,08,13,12,46,21.20
2010,08,13,12,47,21.30
2010,08,13,12,48,21.30
2010,08,13,12,49,21.30
2010,08,13,12,50,21.40
2010,08,13,12,51,21.40
2010,08,13,12,52,21.40
2010,08,13,12,53,21.40
2010,08,13,12,54,21.50
2010,08,13,12,55,21.50
2010,08,13,12,56,21.60
2010,08,13,12,57,21.60
2010,08,13,12,58,21.70
2010,08,13,12,59,21.70
2010,08,13,13,00,21.80
2010,08,13,13,01,21.80
2010,08,13,13,02,21.80
2010,08,13,13,03,21.90
2010,08,13,13,04,21.90
2010,08,13,13,05,22.00
2010,08,13,13,06,21.90
2010,08,13,13,07,21.90
2010,08,13,13,08,21.90
2010,08,13,13,09,21.90
2010,08,13,13,10,21.90
2010,08,13,13,11,21.90
2010,08,13,13,12,21.90
2010,08,13,13,13,21.80
2010,08,13,13,14,21.80
2010,08,13,13,15,21.70
2010,08,13,13,16,21.80
2010,08,13,13,17,21.80
2010,08,13,13,18,21.90
2010,08,13,13,19,22.10
2010,08,13,13,20,22.20
2010,08,13,13,21,22.30
2010,08,13,13,22,22.30
2010,08,13,13,23,22.30
2010,08,13,13,24,22.40
2010,08,13,13,25,22.40
2010,08,13,13,26,22.50
2010,08,13,13,27,22.60
2010,08,13,13,28,22.60
2010,08,13,13,29,22.70
2010,08,13,13,30,22.80
2010,08,13,13,31,22.80
2010,08,13,13,32,22.80
2010,08,13,13,33,22.80
2010,08,13,13,34,22.80
2010,08,13,13,35,22.80
2010,08,13,13,36,22.70
2010,08,13,13,37,22.70
2010,08,13,13,38,22.60
2010,08,13,13,39,22.60
2010,08,13,13,40,22.50
2010,08,13,13,41,22.60
2010,08,13,13,42,22.60
2010,08,13,13,43,22.60
2010,08,13,13,44,22.60
2010,08,13,13,45,22.70
2010,08,13,13,46,22.70
2010,08,13,13,47,22.70
2010,08,13,13,48,22.70
2010,08,13,13,49,22.70
2010,08,13,13,50,22.80
2010,08,13,13,51,22.90
2010,08,13,13,52,23.00
2010,08,13,13,53,23.10
2010,08,13,13,54,23.10
2010,08,13,13,55,23.20
2010,08,13,13,56,23.20
2010,08,13,13,57,23.30
2010,08,13,13,58,23.30
2010,08,13,13,59,23.30
2010,08,13,14,00,23.40
2010,08,13,14,01,23.40
2010,08,13,14,02,23.40
2010,08,13,14,03,23.40
2010,08,13,14,04,23.40
2010,08,13,14,05,23.40
2010,08,13,14,06,23.50
2010,08,13,14,07,23.40
2010,08,13,14,08,23.50
2010,08,13,14,09,23.50
2010,08,13,14,10,23.50
2010,08,13,14,11,23.60
2010,08,13,14,12,23.60
2010,08,13,14,13,23.60
2010,08,13,14,14,23.60
2010,08,13,14,15,23.60
2010,08,13,14,16,23.60
2010,08,13,14,17,23.60
2010,08,13,14,18,23.60
2010,08,13,14,19,23.70
2010,08,13,14,20,23.80
2010,08,13,14,21,23.90
2010,08,13,14,22,24.00
2010,08,13,14,23,24.20
2010,08,13,14,24,24.30
2010,08,13,14,25,24.40
2010,08,13,14,26,24.50
2010,08,13,14,27,24.60
2010,08,13,14,28,24.70
2010,08,13,14,29,24.70
2010,08,13,14,30,24.70
2010,08,13,14,31,24.80
2010,08,13,14,32,24.80
2010,08,13,14,33,24.70
2010,08,13,14,34,24.70
2010,08,13,14,35,24.70
2010,08,13,14,36,24.70
2010,08,13,14,37,24.60
2010,08,13,14,38,24.60
2010,08,13,14,39,24.50
2010,08,13,14,40,24.50
2010,08,13,14,41,24.40
2010,08,13,14,42,24.40
2010,08,13,14,43,24.40
2010,08,13,14,44,24.50
2010,08,13,14,45,24.50
2010,08,13,14,46,24.50
2010,08,13,14,47,24.60
2010,08,13,14,48,24.60
2010,08,13,14,49,24.60
2010,08,13,14,50,24.60
2010,08,13,14,51,24.60
2010,08,13,14,52,24.70
2010,08,13,14,53,24.70
2010,08,13,14,54,24.70
2010,08,13,14,55,24.80
2010,08,13,14,56,24.80
2010,08,13,14,57,24.80
2010,08,13,14,58,24.80
2010,08,13,14,59,24.80
2010,08,13,15,00,24.90
2010,08,13,15,01,24.90
2010,08,13,15,02,24.90
2010,08,13,15,03,24.90
2010,08,13,15,04,24.90
2010,08,13,15,05,24.90
2010,08,13,15,06,25.00
2010,08,13,15,07,25.00
2010,08,13,15,08,25.10
2010,08,13,15,09,25.20
2010,08,13,15,10,25.30
2010,08,13,15,11,25.30
2010,08,13,15,12,25.30
2010,08,13,15,13,25.30
2010,08,13,15,14,25.30
2010,08,13,15,15,25.30
2010,08,13,15,16,25.30
2010,08,13,15,17,25.30
2010,08,13,15,18,25.30
2010,08,13,15,19,25.30
2010,08,13,15,20,25.30
2010,08,13,15,21,25.20
2010,08,13,15,22,25.10
2010,08,13,15,23,25.00
2010,08,13,15,24,25.00
2010,08,13,15,25,25.00
2010,08,13,15,26,25.10
2010,08,13,15,27,25.20
2010,08,13,15,28,25.30
2010,08,13,15,29,25.40
2010,08,13,15,30,25.50
2010,08,13,15,31,25.50
2010,08,13,15,32,25.40
2010,08,13,15,33,25.40
2010,08,13,15,34,25.30
2010,08,13,15,35,25.30
2010,08,13,15,36,25.40
2010,08,13,15,37,25.50
2010,08,13,15,38,25.70
2010,08,13,15,39,25.90
2010,08,13,15,40,25.90
2010,08,13,15,41,26.10
2010,08,13,15,42,26.30
2010,08,13,15,43,26.50
2010,08,13,15,44,26.60
2010,08,13,15,45,26.60
2010,08,13,15,46,26.70
2010,08,13,15,47,26.70
2010,08,13,15,48,26.80
2010,08,13,15,49,26.80
2010,08,13,15,50,26.80
2010,08,13,15,51,26.80
2010,08,13,15,52,26.80
2010,08,13,15,53,26.80
2010,08,13,15,54,26.80
2010,08,13,15,55,26.90
2010,08,13,15,56,27.00
2010,08,13,15,57,27.00
2010,08,13,15,58,27.00
2010,08,13,15,59,27.00
2010,08,13,16,00,27.10
2010,08,13,16,01,27.10
2010,08,13,16,02,27.10
2010,08,13,16,03,27.10
2010,08,13,16,04,27.20
2010,08,13,16,05,27.30
2010,08,13,16,06,27.40
2010,08,13,16,07,27.50
2010,08,13,16,08,27.60
2010,08,13,16,09,27.70
2010,08,13,16,10,27.80
2010,08,13,16,11,27.80
2010,08,13,16,12,27.90
2010,08,13,16,13,27.90
2010,08,13,16,14,28.00
2010,08,13,16,15,28.00
2010,08,13,16,16,28.10
2010,08,13,16,17,28.30
2010,08,13,16,18,28.30
2010,08,13,16,19,28.40
2010,08,13,16,20,28.50
2010,08,13,16,21,28.60
2010,08,13,16,22,28.60
2010,08,13,16,23,28.50
2010,08,13,16,24,28.50
2010,08,13,16,25,28.40
2010,08,13,16,26,28.40
2010,08,13,16,27,28.40
2010,08,13,16,28,28.40
2010,08,13,16,29,28.40
2010,08,13,16,30,28.50
2010,08,13,16,31,28.50
2010,08,13,16,32,28.60
2010,08,13,16,33,28.70
2010,08,13,16,34,28.70
2010,08,13,16,35,28.80
2010,08,13,16,36,28.80
2010,08,13,16,37,28.80
2010,08,13,16,38,28.80
2010,08,13,16,39,28.80
2010,08,13,16,40,28.80
2010,08,13,16,41,28.80
2010,08,13,16,42,28.80
2010,08,13,16,43,28.80
2010,08,13,16,44,28.80
2010,08,13,16,45,28.80
2010,08,13,16,46,28.80
2010,08,13,16,47,28.90
2010,08,13,16,48,28.90
2010,08,13,16,49,29.00
2010,08,13,16,50,29.10
2010,08,13,16,51,29.10
2010,08,13,16,52,29.10
2010,08,13,16,53,29.20
2010,08,13,16,54,29.20
2010,08,13,16,55,29.20
2010,08,13,16,56,29.20
2010,08,13,16,57,29.20
2010,08,13,16,58,29.20
2010,08,13,16,59,29.20
2010,08,13,17,00,29.10
2010,08,13,17,01,29.10
2010,08,13,17,02,29.10
2010,08,13,17,03,29.00
2010,08,13,17,04,29.00
2010,08,13,17,05,28.90
2010,08,13,17,06,28.80
2010,08,13,17,07,28.80
2010,08,13,17,08,28.80
2010,08,13,17,09,28.70
2010,08,13,17,10,28.70
2010,08,13,17,11,28.70
2010,08,13,17,12,28.70
2010,08,13,17,13,28.70
2010,08,13,17,14,28.70
2010,08,13,17,15,28.70
2010,08,13,17,16,28.70
2010,08,13,17,17,28.70
2010,08,13,17,18,28.70
2010,08,13,17,19,28.70
2010,08,13,17,20,28.70
2010,08,13,17,21,28.70
2010,08,13,17,22,28.70
2010,08,13,17,23,28.70
2010,08,13,17,24,28.60
2010,08,13,17,25,28.60
2010,08,13,17,26,28.60
2010,08,13,17,27,28.70
2010,08,13,17,28,28.70
2010,08,13,17,29,28.70
2010,08,13,17,30,28.70
2010,08,13,17,31,28.70
2010,08,13,17,32,28.70
2010,08,13,17,33,28.80
2010,08,13,17,34,28.80
2010,08,13,17,35,28.90
2010,08,13,17,36,28.90
2010,08,13,17,37,28.90
2010,08,13,17,38,28.80
2010,08,13,17,39,28.80
2010,08,13,17,40,28.70
2010,08,13,17,41,28.70
2010,08,13,17,42,28.70
2010,08,13,17,43,28.80
2010,08,13,17,44,28.80
2010,08,13,17,45,28.80
2010,08,13,17,46,28.80
2010,08,13,17,47,28.80
2010,08,13,17,48,28.80
2010,08,13,17,49,28.80
2010,08,13,17,50,28.80
2010,08,13,17,51,28.90
2010,08,13,17,52,28.90
2010,08,13,17,53,28.90
2010,08,13,17,54,28.80
2010,08,13,17,55,28.80
2010,08,13,17,56,28.80
2010,08,13,17,57,28.80
2010,08,13,17,58,28.80
2010,08,13,17,59,28.80
2010,08,13,18,00,28.80
2010,08,13,18,01,28.80
2010,08,13,18,02,28.80
2010,08,13,18,03,28.80
2010,08,13,18,04,28.80
2010,08,13,18,05,28.80
2010,08,13,18,06,28.80
2010,08,13,18,07,28.90
2010,08,13,18,08,28.90